Time,TemperatureF,DewpointF,PressureIn,WindDirection,WindDirectionDegrees,WindSpeedMPH,WindSpeedGustMPH,Humidity,HourlyPrecipIn,Conditions,Clouds,dailyrainin,SoftwareType,DateUTC
2013-04-24 00:03:00,23.4,20.1,30.02,SSW,211,2.2,2.7,87,0.00,,CLR,0.00,VWS V13.01,2013-04-24 06:03:00,
2013-04-24 00:08:00,23.4,20.1,30.02,SSW,211,2.7,3.1,87,0.00,,CLR,0.00,VWS V13.01,2013-04-24 06:08:00,
2013-04-24 00:13:00,23.4,20.1,30.02,SSW,207,2.7,3.6,87,0.00,,CLR,0.00,VWS V13.01,2013-04-24 06:13:00,
2013-04-24 00:18:00,23.5,20.5,30.02,South,179,2.7,5.4,88,0.00,,CLR,0.00,VWS V13.01,2013-04-24 06:18:00,
2013-04-24 00:23:00,23.5,20.5,30.02,SSW,202,3.6,5.4,88,0.00,,CLR,0.00,VWS V13.01,2013-04-24 06:23:00,
2013-04-24 00:28:00,23.5,20.5,30.02,SSW,203,0.0,5.4,88,0.00,,CLR,0.00,VWS V13.01,2013-04-24 06:28:00,
2013-04-24 00:33:00,23.5,20.5,30.02,SSW,213,4.0,4.0,88,0.00,,CLR,0.00,VWS V13.01,2013-04-24 06:33:00,
2013-04-24 00:38:00,23.7,20.7,30.02,SW,220,2.7,5.4,88,0.00,,CLR,0.00,VWS V13.01,2013-04-24 06:38:00,
2013-04-24 00:43:00,23.9,21.1,30.02,SW,225,2.7,5.8,89,0.00,,CLR,0.00,VWS V13.01,2013-04-24 06:43:00,
2013-04-24 00:48:00,23.9,21.1,30.02,SW,226,3.6,5.4,89,0.00,,CLR,0.00,VWS V13.01,2013-04-24 06:48:00,
2013-04-24 00:53:00,23.9,21.1,30.02,SSW,210,3.1,5.4,89,0.00,,CLR,0.00,VWS V13.01,2013-04-24 06:53:00,
2013-04-24 00:58:00,23.9,21.1,30.02,SW,221,2.7,5.4,89,0.00,,CLR,0.00,VWS V13.01,2013-04-24 06:58:00,
2013-04-24 01:03:00,23.9,21.1,30.02,SSW,212,3.1,3.6,89,0.00,,CLR,0.00,VWS V13.01,2013-04-24 07:03:00,
2013-04-24 01:08:00,23.7,20.7,30.02,South,190,2.7,4.9,88,0.00,,CLR,0.00,VWS V13.01,2013-04-24 07:08:00,
2013-04-24 01:13:00,23.5,20.2,30.02,SSW,209,0.0,4.9,87,0.00,,CLR,0.00,VWS V13.01,2013-04-24 07:13:00,
2013-04-24 01:18:00,23.4,20.1,30.02,SSW,194,3.1,4.0,87,0.00,,CLR,0.00,VWS V13.01,2013-04-24 07:18:00,
2013-04-24 01:23:00,23.4,20.1,30.02,SW,214,3.1,5.4,87,0.00,,CLR,0.00,VWS V13.01,2013-04-24 07:23:00,
2013-04-24 01:28:00,23.4,20.1,30.02,SSE,157,0.0,5.8,87,0.00,,CLR,0.00,VWS V13.01,2013-04-24 07:28:00,
2013-04-24 01:33:00,23.2,19.6,30.02,SSE,168,0.0,2.7,86,0.00,,CLR,0.00,VWS V13.01,2013-04-24 07:33:00,
2013-04-24 01:38:00,23.0,19.5,30.02,South,185,2.7,4.0,86,0.00,,CLR,0.00,VWS V13.01,2013-04-24 07:38:00,
2013-04-24 01:43:00,23.0,19.5,29.99,South,185,0.0,4.0,86,0.00,,CLR,0.00,VWS V13.01,2013-04-24 07:43:00,
2013-04-24 01:48:00,22.8,19.3,29.99,South,185,0.0,0.0,86,0.00,,CLR,0.00,VWS V13.01,2013-04-24 07:48:00,
2013-04-24 01:53:00,22.6,18.8,29.99,SSW,204,4.0,5.4,85,0.00,,CLR,0.00,VWS V13.01,2013-04-24 07:53:00,
2013-04-24 01:59:00,22.6,18.8,29.99,SSW,194,2.7,5.4,85,0.00,,CLR,0.00,VWS V13.01,2013-04-24 07:59:00,
2013-04-24 02:04:00,22.8,19.3,29.99,SSW,210,0.0,5.4,86,0.00,,CLR,0.00,VWS V13.01,2013-04-24 08:04:00,
2013-04-24 02:09:00,23.0,19.5,29.99,South,181,0.0,5.4,86,0.00,,CLR,0.00,VWS V13.01,2013-04-24 08:09:00,
2013-04-24 02:14:00,22.8,19.3,29.99,SSW,206,0.0,5.4,86,0.00,,CLR,0.00,VWS V13.01,2013-04-24 08:14:00,
2013-04-24 02:19:00,22.8,19.3,29.99,SSW,206,0.0,0.0,86,0.00,,CLR,0.00,VWS V13.01,2013-04-24 08:19:00,
2013-04-24 02:24:00,22.6,19.1,29.99,SSW,208,0.0,2.7,86,0.00,,CLR,0.00,VWS V13.01,2013-04-24 08:24:00,
2013-04-24 02:29:00,22.5,18.6,29.99,SW,217,0.0,4.0,85,0.00,,CLR,0.00,VWS V13.01,2013-04-24 08:29:00,
2013-04-24 02:34:00,22.5,18.6,29.99,SSW,202,0.0,2.7,85,0.00,,CLR,0.00,VWS V13.01,2013-04-24 08:34:00,
2013-04-24 02:39:00,22.3,18.5,29.99,SSW,202,0.0,2.7,85,0.00,,CLR,0.00,VWS V13.01,2013-04-24 08:39:00,
2013-04-24 02:44:00,22.1,18.0,29.99,SSW,201,0.0,2.7,84,0.00,,CLR,0.00,VWS V13.01,2013-04-24 08:44:00,
2013-04-24 02:49:00,22.1,18.0,29.99,SSW,202,0.0,0.0,84,0.00,,CLR,0.00,VWS V13.01,2013-04-24 08:49:00,
2013-04-24 02:54:00,21.9,17.8,29.99,SSE,154,0.0,4.0,84,0.00,,CLR,0.00,VWS V13.01,2013-04-24 08:54:00,
2013-04-24 02:59:00,21.7,17.7,29.99,SSE,155,0.0,4.0,84,0.00,,CLR,0.00,VWS V13.01,2013-04-24 08:59:00,
2013-04-24 03:04:00,21.7,17.4,29.99,South,187,0.0,3.6,83,0.00,,CLR,0.00,VWS V13.01,2013-04-24 09:04:00,
2013-04-24 03:09:00,21.7,17.4,29.99,SSE,166,0.0,3.6,83,0.00,,CLR,0.00,VWS V13.01,2013-04-24 09:09:00,
2013-04-24 03:14:00,21.6,17.2,29.99,SSW,201,0.0,3.6,83,0.00,,CLR,0.00,VWS V13.01,2013-04-24 09:14:00,
2013-04-24 03:19:00,21.6,17.2,29.99,SSW,202,2.2,2.2,83,0.00,,CLR,0.00,VWS V13.01,2013-04-24 09:19:00,
2013-04-24 03:24:00,21.4,17.0,29.99,SSW,201,0.0,2.2,83,0.00,,CLR,0.00,VWS V13.01,2013-04-24 09:24:00,
2013-04-24 03:29:00,21.4,17.0,29.99,SSW,202,0.0,2.2,83,0.00,,CLR,0.00,VWS V13.01,2013-04-24 09:29:00,
2013-04-24 03:34:00,21.2,16.9,29.99,SSW,202,0.0,0.0,83,0.00,,CLR,0.00,VWS V13.01,2013-04-24 09:34:00,
2013-04-24 03:39:00,21.4,17.0,29.99,South,177,0.0,3.1,83,0.00,,CLR,0.00,VWS V13.01,2013-04-24 09:39:00,
2013-04-24 03:44:00,21.6,17.5,29.99,SW,214,4.0,4.0,84,0.00,,CLR,0.00,VWS V13.01,2013-04-24 09:44:00,
2013-04-24 03:49:00,21.9,18.1,29.99,WSW,251,3.1,4.0,85,0.00,,CLR,0.00,VWS V13.01,2013-04-24 09:49:00,
2013-04-24 03:54:00,22.3,18.7,29.99,SSW,202,2.7,5.8,86,0.00,,CLR,0.00,VWS V13.01,2013-04-24 09:54:00,
2013-04-24 03:59:00,22.5,18.9,29.99,SW,217,3.6,5.8,86,0.00,,CLR,0.00,VWS V13.01,2013-04-24 09:59:00,
2013-04-24 04:04:00,22.6,19.4,29.99,SSW,196,3.1,3.6,87,0.00,,CLR,0.00,VWS V13.01,2013-04-24 10:04:00,
2013-04-24 04:09:00,22.8,19.5,29.99,SSW,195,0.0,4.9,87,0.00,,CLR,0.00,VWS V13.01,2013-04-24 10:09:00,
2013-04-24 04:14:00,23.0,19.7,29.99,SSW,208,0.0,4.9,87,0.00,,CLR,0.00,VWS V13.01,2013-04-24 10:14:00,
2013-04-24 04:19:00,22.8,19.3,29.99,SW,221,4.0,4.0,86,0.00,,CLR,0.00,VWS V13.01,2013-04-24 10:19:00,
2013-04-24 04:25:00,22.8,19.3,29.99,SW,222,2.2,4.0,86,0.00,,CLR,0.00,VWS V13.01,2013-04-24 10:25:00,
2013-04-24 04:30:00,22.8,19.3,29.99,SSE,166,2.2,6.3,86,0.00,,CLR,0.00,VWS V13.01,2013-04-24 10:30:00,
2013-04-24 04:35:00,22.8,19.3,29.99,South,180,2.7,3.6,86,0.00,,CLR,0.00,VWS V13.01,2013-04-24 10:35:00,
2013-04-24 04:40:00,22.8,19.0,29.99,South,180,0.0,4.0,85,0.00,,CLR,0.00,VWS V13.01,2013-04-24 10:40:00,
2013-04-24 04:45:00,22.8,19.0,29.99,SSW,203,2.7,4.0,85,0.00,,CLR,0.00,VWS V13.01,2013-04-24 10:45:00,
2013-04-24 04:50:00,22.8,19.0,29.99,SSE,157,0.0,6.3,85,0.00,,CLR,0.00,VWS V13.01,2013-04-24 10:50:00,
2013-04-24 04:55:00,22.8,19.0,29.99,SW,232,0.0,6.3,85,0.00,,CLR,0.00,VWS V13.01,2013-04-24 10:55:00,
2013-04-24 05:00:00,22.8,18.7,29.99,WSW,240,3.1,6.3,84,0.00,,CLR,0.00,VWS V13.01,2013-04-24 11:00:00,
2013-04-24 05:05:00,22.6,18.5,29.99,SSW,213,4.9,5.4,84,0.00,,FEW200,0.00,VWS V13.01,2013-04-24 11:05:00,
2013-04-24 05:10:00,22.8,18.7,29.99,SW,228,3.1,5.4,84,0.00,,FEW200,0.00,VWS V13.01,2013-04-24 11:10:00,
2013-04-24 05:15:00,22.5,18.4,29.99,SW,236,3.6,3.6,84,0.00,,FEW200,0.00,VWS V13.01,2013-04-24 11:15:00,
2013-04-24 05:20:00,22.6,18.5,29.99,SW,230,2.7,5.8,84,0.00,,FEW200,0.00,VWS V13.01,2013-04-24 11:20:00,
2013-04-24 05:25:00,22.3,17.9,29.99,SW,225,2.2,5.8,83,0.00,,FEW200,0.00,VWS V13.01,2013-04-24 11:25:00,
2013-04-24 05:30:00,22.3,17.9,29.99,SW,229,3.1,4.9,83,0.00,,FEW200,0.00,VWS V13.01,2013-04-24 11:30:00,
2013-04-24 05:35:00,22.3,17.9,29.99,SW,220,2.7,4.9,83,0.00,,FEW200,0.00,VWS V13.01,2013-04-24 11:35:00,
2013-04-24 05:40:00,22.3,17.9,29.99,SSW,203,3.6,4.9,83,0.00,,FEW200,0.00,VWS V13.01,2013-04-24 11:40:00,
2013-04-24 05:45:00,22.3,17.9,30.02,SW,214,0.0,0.0,83,0.00,,FEW200,0.00,VWS V13.01,2013-04-24 11:45:00,
2013-04-24 05:50:00,22.5,18.4,30.02,SW,214,0.0,2.7,84,0.00,,FEW200,0.00,VWS V13.01,2013-04-24 11:50:00,
2013-04-24 05:55:00,22.3,18.2,30.02,SW,214,0.0,2.7,84,0.00,,FEW200,0.00,VWS V13.01,2013-04-24 11:55:00,
2013-04-24 06:00:00,22.3,17.9,30.02,SW,214,0.0,0.0,83,0.00,,FEW200,0.00,VWS V13.01,2013-04-24 12:00:00,
2013-04-24 06:05:00,22.1,17.7,30.02,SW,214,2.7,2.7,83,0.00,,BKN200,0.00,VWS V13.01,2013-04-24 12:05:00,
2013-04-24 06:10:00,22.1,17.7,30.02,SE,126,2.7,3.6,83,0.00,,BKN200,0.00,VWS V13.01,2013-04-24 12:10:00,
2013-04-24 06:15:00,22.1,18.0,30.02,SSE,149,2.7,2.7,84,0.00,,BKN200,0.00,VWS V13.01,2013-04-24 12:15:00,
2013-04-24 06:20:00,22.1,18.0,30.02,SSE,149,2.7,3.1,84,0.00,,BKN200,0.00,VWS V13.01,2013-04-24 12:20:00,
2013-04-24 06:25:00,22.1,18.0,30.02,SSE,147,2.7,3.1,84,0.00,,BKN200,0.00,VWS V13.01,2013-04-24 12:25:00,
2013-04-24 06:30:00,22.1,18.0,30.02,SSE,147,0.0,0.0,84,0.00,,BKN200,0.00,VWS V13.01,2013-04-24 12:30:00,
2013-04-24 06:35:00,22.3,18.2,30.02,SSE,147,0.0,0.0,84,0.00,,BKN200,0.00,VWS V13.01,2013-04-24 12:35:00,
2013-04-24 06:41:00,22.3,18.2,30.02,SSE,147,0.0,2.7,84,0.00,,BKN200,0.00,VWS V13.01,2013-04-24 12:41:00,
2013-04-24 06:46:00,22.5,18.6,30.02,SSE,147,2.7,3.1,85,0.00,,BKN200,0.00,VWS V13.01,2013-04-24 12:46:00,
2013-04-24 06:51:00,22.8,19.0,30.02,SSE,150,2.2,3.1,85,0.00,,BKN200,0.00,VWS V13.01,2013-04-24 12:51:00,
2013-04-24 06:56:00,22.8,19.0,30.02,SE,129,2.2,3.6,85,0.00,,BKN200,0.00,VWS V13.01,2013-04-24 12:56:00,
2013-04-24 07:01:00,23.0,19.5,30.02,SE,129,0.0,0.0,86,0.00,,BKN200,0.00,VWS V13.01,2013-04-24 13:01:00,
2013-04-24 07:06:00,23.4,19.5,30.02,SSE,157,2.2,4.0,85,0.00,,BKN220,0.00,VWS V13.01,2013-04-24 13:06:00,
2013-04-24 07:11:00,23.5,20.0,30.02,SSE,160,2.2,4.0,86,0.00,,BKN220,0.00,VWS V13.01,2013-04-24 13:11:00,
2013-04-24 07:16:00,23.7,20.1,30.02,SSE,154,3.6,3.6,86,0.00,,BKN220,0.00,VWS V13.01,2013-04-24 13:16:00,
2013-04-24 07:21:00,24.1,20.5,30.02,SSE,153,3.1,5.8,86,0.00,,BKN220,0.00,VWS V13.01,2013-04-24 13:21:00,
2013-04-24 07:26:00,24.4,21.1,30.02,SSE,154,3.6,5.8,87,0.00,,BKN220,0.00,VWS V13.01,2013-04-24 13:26:00,
2013-04-24 07:31:00,24.8,21.5,30.02,SSW,196,3.6,4.0,87,0.00,,BKN220,0.00,VWS V13.01,2013-04-24 13:31:00,
2013-04-24 07:36:00,25.2,21.8,30.02,SE,141,3.1,4.0,87,0.00,,BKN220,0.00,VWS V13.01,2013-04-24 13:36:00,
2013-04-24 07:41:00,25.5,22.2,30.02,SE,129,0.0,4.9,87,0.00,,BKN220,0.00,VWS V13.01,2013-04-24 13:41:00,
2013-04-24 07:46:00,26.1,23.0,30.05,SSE,147,2.7,4.9,88,0.00,,BKN220,0.00,VWS V13.01,2013-04-24 13:46:00,
2013-04-24 07:51:00,26.6,23.5,30.05,SSE,154,3.1,4.9,88,0.00,,BKN220,0.00,VWS V13.01,2013-04-24 13:51:00,
2013-04-24 07:56:00,27.0,23.9,30.05,SSE,159,0.0,5.4,88,0.00,,BKN220,0.00,VWS V13.01,2013-04-24 13:56:00,
2013-04-24 08:01:00,27.3,24.5,30.05,South,178,2.2,4.9,89,0.00,,BKN220,0.00,VWS V13.01,2013-04-24 14:01:00,
2013-04-24 08:06:00,27.9,25.0,30.05,SSE,162,3.1,4.9,89,0.00,,BKN220,0.00,VWS V13.01,2013-04-24 14:06:00,
2013-04-24 08:11:00,28.4,25.9,30.05,South,190,2.7,4.9,90,0.00,,BKN220,0.00,VWS V13.01,2013-04-24 14:11:00,
2013-04-24 08:16:00,28.8,26.2,30.05,SSW,209,4.0,5.4,90,0.00,,BKN220,0.00,VWS V13.01,2013-04-24 14:16:00,
2013-04-24 08:21:00,29.1,26.6,30.05,SSW,206,5.4,6.3,90,0.00,,BKN220,0.00,VWS V13.01,2013-04-24 14:21:00,
2013-04-24 08:26:00,29.5,26.9,30.05,SSE,154,3.1,6.3,90,0.00,,BKN220,0.00,VWS V13.01,2013-04-24 14:26:00,
2013-04-24 08:31:00,29.7,27.1,30.05,SSE,163,4.0,4.9,90,0.00,,BKN220,0.00,VWS V13.01,2013-04-24 14:31:00,
2013-04-24 08:36:00,30.0,27.5,30.05,SSW,211,3.6,6.3,90,0.00,,BKN220,0.00,VWS V13.01,2013-04-24 14:36:00,
2013-04-24 08:41:00,30.2,27.6,30.05,SW,229,0.0,6.3,90,0.00,,BKN220,0.00,VWS V13.01,2013-04-24 14:41:00,
2013-04-24 08:46:00,30.4,27.8,30.05,SSE,156,3.1,4.0,90,0.00,,BKN220,0.00,VWS V13.01,2013-04-24 14:46:00,
2013-04-24 08:51:00,30.4,27.8,30.05,SSE,165,3.6,4.0,90,0.00,,BKN220,0.00,VWS V13.01,2013-04-24 14:51:00,
2013-04-24 08:56:00,30.4,27.8,30.05,SSE,149,2.2,4.0,90,0.00,,BKN220,0.00,VWS V13.01,2013-04-24 14:56:00,
2013-04-24 09:02:00,30.7,28.4,30.05,SSE,150,0.0,0.0,91,0.00,,BKN220,0.00,VWS V13.01,2013-04-24 15:02:00,
2013-04-24 09:09:00,31.6,29.6,30.05,SSW,193,2.7,2.7,92,0.00,,BKN220,0.00,VWS V13.01,2013-04-24 15:09:00,
2013-04-24 09:14:00,32.5,30.5,30.05,SSE,152,0.0,5.8,92,0.00,,BKN220,0.00,VWS V13.01,2013-04-24 15:14:00,
2013-04-24 09:19:00,33.1,31.0,30.05,ESE,113,4.0,4.5,92,0.00,,BKN220,0.00,VWS V13.01,2013-04-24 15:19:00,
2013-04-24 09:24:00,33.8,31.2,30.05,South,182,3.6,6.3,90,0.00,,BKN220,0.00,VWS V13.01,2013-04-24 15:24:00,
2013-04-24 09:29:00,34.3,31.7,30.05,SE,141,4.0,6.3,90,0.00,,BKN220,0.00,VWS V13.01,2013-04-24 15:29:00,
2013-04-24 09:34:00,35.1,32.2,30.05,SE,138,4.9,7.2,89,0.00,,BKN220,0.00,VWS V13.01,2013-04-24 15:34:00,
2013-04-24 09:39:00,35.6,32.4,30.05,SSE,165,2.7,7.2,88,0.00,,BKN220,0.00,VWS V13.01,2013-04-24 15:39:00,
2013-04-24 09:44:00,36.1,32.7,30.02,SW,224,5.4,7.2,87,0.00,,BKN220,0.00,VWS V13.01,2013-04-24 15:44:00,
2013-04-24 09:49:00,36.7,33.2,30.02,SSW,213,0.0,4.0,87,0.00,,BKN220,0.00,VWS V13.01,2013-04-24 15:49:00,
2013-04-24 09:55:00,37.2,33.7,30.02,SW,229,2.7,6.3,87,0.00,,BKN220,0.00,VWS V13.01,2013-04-24 15:55:00,
2013-04-24 10:00:00,37.6,33.5,30.02,SSW,211,2.2,6.3,85,0.00,,BKN220,0.00,VWS V13.01,2013-04-24 16:00:00,
2013-04-24 10:05:00,38.1,33.7,30.02,SSW,198,2.7,5.4,84,0.00,,BKN220,0.00,VWS V13.01,2013-04-24 16:05:00,
2013-04-24 10:10:00,38.5,33.8,30.02,South,182,2.2,5.4,83,0.00,,BKN220,0.00,VWS V13.01,2013-04-24 16:10:00,
2013-04-24 10:15:00,38.7,34.2,30.02,SW,224,4.5,5.4,84,0.00,,BKN220,0.00,VWS V13.01,2013-04-24 16:15:00,
2013-04-24 10:20:00,39.6,35.1,30.02,South,169,0.0,4.9,84,0.00,,BKN220,0.00,VWS V13.01,2013-04-24 16:20:00,
2013-04-24 10:25:00,39.9,34.9,30.02,East,95,2.7,4.9,82,0.00,,BKN220,0.00,VWS V13.01,2013-04-24 16:25:00,
2013-04-24 10:30:00,40.3,35.8,30.05,East,101,2.2,4.9,84,0.00,,BKN220,0.00,VWS V13.01,2013-04-24 16:30:00,
2013-04-24 10:35:00,40.5,36.3,30.05,North,357,2.7,3.1,85,0.00,,BKN220,0.00,VWS V13.01,2013-04-24 16:35:00,
2013-04-24 10:40:00,41.0,35.9,30.05,North,9,2.7,4.0,82,0.00,,BKN220,0.00,VWS V13.01,2013-04-24 16:40:00,
2013-04-24 10:45:00,41.5,36.8,30.05,North,357,0.0,4.0,83,0.00,,BKN220,0.00,VWS V13.01,2013-04-24 16:45:00,
2013-04-24 10:50:00,41.7,36.3,30.05,North,4,0.0,3.1,81,0.00,,BKN220,0.00,VWS V13.01,2013-04-24 16:50:00,
2013-04-24 10:55:00,42.3,36.9,30.05,WNW,303,0.0,3.6,81,0.00,,BKN220,0.00,VWS V13.01,2013-04-24 16:55:00,
2013-04-24 11:00:00,42.4,36.1,30.05,ENE,57,3.6,5.4,78,0.00,,BKN220,0.00,VWS V13.01,2013-04-24 17:00:00,
2013-04-24 11:05:00,42.4,36.1,30.05,East,96,4.0,4.0,78,0.00,,SCT220,0.00,VWS V13.01,2013-04-24 17:05:00,
2013-04-24 11:10:00,42.8,37.1,30.05,SE,131,3.1,4.9,80,0.00,,SCT220,0.00,VWS V13.01,2013-04-24 17:10:00,
2013-04-24 11:15:00,43.3,36.6,30.05,ENE,60,4.5,5.4,77,0.00,,SCT220,0.00,VWS V13.01,2013-04-24 17:15:00,
2013-04-24 11:20:00,43.9,37.2,30.05,East,92,3.6,5.4,77,0.00,,SCT220,0.00,VWS V13.01,2013-04-24 17:20:00,
2013-04-24 11:25:00,43.5,36.5,30.05,NW,311,0.0,5.8,76,0.00,,SCT220,0.00,VWS V13.01,2013-04-24 17:25:00,
2013-04-24 11:30:00,44.1,34.9,30.05,West,278,2.7,3.1,70,0.00,,SCT220,0.00,VWS V13.01,2013-04-24 17:30:00,
2013-04-24 11:35:00,44.8,38.7,30.05,SSW,208,3.1,4.0,79,0.00,,SCT220,0.00,VWS V13.01,2013-04-24 17:35:00,
2013-04-24 11:40:00,45.1,39.0,30.05,East,81,2.2,4.0,79,0.00,,SCT220,0.00,VWS V13.01,2013-04-24 17:40:00,
2013-04-24 11:45:00,45.5,39.4,30.05,North,4,2.7,2.7,79,0.00,,SCT220,0.00,VWS V13.01,2013-04-24 17:45:00,
2013-04-24 11:50:00,45.9,39.7,30.05,SE,133,0.0,4.9,79,0.00,,SCT220,0.00,VWS V13.01,2013-04-24 17:50:00,
2013-04-24 11:55:00,46.4,41.5,30.05,SSE,158,4.0,4.9,83,0.00,,SCT220,0.00,VWS V13.01,2013-04-24 17:55:00,
2013-04-24 12:00:00,46.8,39.6,30.02,SSW,211,4.0,4.0,76,0.00,,SCT220,0.00,VWS V13.01,2013-04-24 18:00:00,
2013-04-24 12:05:00,47.3,41.5,30.02,ESE,109,4.5,6.7,80,0.00,,SCT220,0.00,VWS V13.01,2013-04-24 18:05:00,
2013-04-24 12:11:00,47.7,41.8,30.02,East,87,2.7,7.6,80,0.00,,SCT220,0.00,VWS V13.01,2013-04-24 18:11:00,
2013-04-24 12:16:00,48.0,42.8,30.05,ESE,105,0.0,0.0,82,0.00,,SCT220,0.00,VWS V13.01,2013-04-24 18:16:00,
2013-04-24 12:21:00,48.0,41.5,30.05,East,81,5.8,5.8,78,0.00,,SCT220,0.00,VWS V13.01,2013-04-24 18:21:00,
2013-04-24 12:26:00,48.0,41.2,30.05,South,175,3.1,8.1,77,0.00,,SCT220,0.00,VWS V13.01,2013-04-24 18:26:00,
2013-04-24 12:31:00,48.7,42.2,30.05,ENE,60,5.8,5.8,78,0.00,,SCT220,0.00,VWS V13.01,2013-04-24 18:31:00,
2013-04-24 12:36:00,48.9,41.7,30.05,NW,317,0.0,6.3,76,0.00,,SCT220,0.00,VWS V13.01,2013-04-24 18:36:00,
2013-04-24 12:41:00,48.4,40.1,30.05,NW,304,8.3,9.6,73,0.00,,SCT220,0.00,VWS V13.01,2013-04-24 18:41:00,
2013-04-24 12:46:00,48.9,40.7,30.05,WSW,247,6.3,8.3,73,0.00,,SCT220,0.00,VWS V13.01,2013-04-24 18:46:00,
2013-04-24 12:51:00,49.3,35.6,30.05,NW,317,5.4,11.0,59,0.00,,SCT220,0.00,VWS V13.01,2013-04-24 18:51:00,
2013-04-24 12:56:00,49.6,38.4,30.05,SW,232,10.1,11.0,65,0.00,,SCT220,0.00,VWS V13.01,2013-04-24 18:56:00,
2013-04-24 13:01:00,49.5,32.1,30.05,WNW,283,4.0,8.1,51,0.00,,SCT220,0.00,VWS V13.01,2013-04-24 19:01:00,
2013-04-24 13:06:00,50.5,35.4,30.05,WSW,239,4.9,8.1,56,0.00,,SCT220,0.00,VWS V13.01,2013-04-24 19:06:00,
2013-04-24 13:11:00,51.4,39.7,30.05,WNW,294,7.2,8.1,64,0.00,,SCT220,0.00,VWS V13.01,2013-04-24 19:11:00,
2013-04-24 13:16:00,51.1,39.7,30.05,NNW,335,5.8,5.8,65,0.00,,SCT220,0.00,VWS V13.01,2013-04-24 19:16:00,
2013-04-24 13:21:00,51.4,38.0,30.05,WNW,297,5.8,5.8,60,0.00,,SCT220,0.00,VWS V13.01,2013-04-24 19:21:00,
2013-04-24 13:26:00,52.0,38.5,30.05,North,353,3.6,10.5,60,0.00,,SCT220,0.00,VWS V13.01,2013-04-24 19:26:00,
2013-04-24 13:31:00,51.8,36.6,30.05,WNW,282,3.6,6.3,56,0.00,,SCT220,0.00,VWS V13.01,2013-04-24 19:31:00,
2013-04-24 13:36:00,52.3,20.2,30.05,NNW,331,4.9,11.0,28,0.00,,SCT220,0.00,VWS V13.01,2013-04-24 19:36:00,
2013-04-24 13:41:00,52.9,25.3,30.05,NNW,329,4.0,11.0,34,0.00,,SCT220,0.00,VWS V13.01,2013-04-24 19:41:00,
2013-04-24 13:46:00,53.2,24.2,30.05,NW,319,5.8,7.6,32,0.00,,SCT220,0.00,VWS V13.01,2013-04-24 19:46:00,
2013-04-24 13:51:00,53.4,19.4,30.05,North,357,5.8,10.5,26,0.00,,SCT220,0.00,VWS V13.01,2013-04-24 19:51:00,
2013-04-24 13:56:00,53.8,20.6,30.05,NW,326,5.4,10.5,27,0.00,,SCT220,0.00,VWS V13.01,2013-04-24 19:56:00,
2013-04-24 14:01:00,54.5,21.2,30.05,WSW,238,8.3,8.3,27,0.00,,BKN220,0.00,VWS V13.01,2013-04-24 20:01:00,
2013-04-24 14:06:00,54.7,21.4,30.05,NNW,330,6.3,10.5,27,0.00,,BKN220,0.00,VWS V13.01,2013-04-24 20:06:00,
2013-04-24 14:11:00,54.9,19.7,30.05,NW,304,5.8,10.5,25,0.00,,BKN220,0.00,VWS V13.01,2013-04-24 20:11:00,
2013-04-24 14:16:00,54.5,21.2,30.05,NW,319,2.7,5.4,27,0.00,,BKN220,0.00,VWS V13.01,2013-04-24 20:16:00,
2013-04-24 14:22:00,54.9,20.6,30.05,NW,311,4.0,6.3,26,0.00,,BKN220,0.00,VWS V13.01,2013-04-24 20:22:00,
2013-04-24 14:27:00,55.6,15.2,30.05,WNW,292,6.3,13.2,20,0.00,,BKN220,0.00,VWS V13.01,2013-04-24 20:27:00,
2013-04-24 14:32:00,55.4,20.2,30.05,NW,322,2.2,5.4,25,0.00,,BKN220,0.00,VWS V13.01,2013-04-24 20:32:00,
2013-04-24 14:37:00,56.5,15.9,30.05,West,262,4.0,7.6,20,0.00,,BKN220,0.00,VWS V13.01,2013-04-24 20:37:00,
2013-04-24 14:42:00,55.9,20.6,30.05,NNW,345,3.1,7.6,25,0.00,,BKN220,0.00,VWS V13.01,2013-04-24 20:42:00,
2013-04-24 14:47:00,56.8,18.4,30.05,NW,324,2.7,8.7,22,0.00,,BKN220,0.00,VWS V13.01,2013-04-24 20:47:00,
2013-04-24 14:52:00,56.8,16.2,30.05,North,353,4.0,8.7,20,0.00,,BKN220,0.00,VWS V13.01,2013-04-24 20:52:00,
2013-04-24 14:57:00,56.5,15.9,30.05,SSE,153,4.9,8.7,20,0.00,,BKN220,0.00,VWS V13.01,2013-04-24 20:57:00,
2013-04-24 15:02:00,57.7,19.2,30.05,West,281,7.6,7.6,22,0.00,,BKN220,0.00,VWS V13.01,2013-04-24 21:02:00,
2013-04-24 15:07:00,57.2,15.3,30.05,North,8,5.4,8.1,19,0.00,,BKN220,0.00,VWS V13.01,2013-04-24 21:07:00,
2013-04-24 15:12:00,57.7,15.8,30.05,NNW,340,0.0,10.5,19,0.00,,BKN220,0.00,VWS V13.01,2013-04-24 21:12:00,
2013-04-24 15:17:00,57.6,15.6,30.05,North,6,2.2,5.4,19,0.00,,BKN220,0.00,VWS V13.01,2013-04-24 21:17:00,
2013-04-24 15:22:00,58.1,16.1,30.05,North,353,4.0,6.7,19,0.00,,BKN220,0.00,VWS V13.01,2013-04-24 21:22:00,
2013-04-24 15:27:00,58.3,13.7,30.05,NNW,327,5.8,10.1,17,0.00,,BKN220,0.00,VWS V13.01,2013-04-24 21:27:00,
2013-04-24 15:32:00,57.2,15.3,30.02,NNE,15,4.9,4.9,19,0.00,,BKN220,0.00,VWS V13.01,2013-04-24 21:32:00,
2013-04-24 15:37:00,57.0,12.7,30.02,NNE,29,5.4,5.8,17,0.00,,BKN220,0.00,VWS V13.01,2013-04-24 21:37:00,
2013-04-24 15:42:00,57.4,12.9,30.02,NW,313,5.4,6.3,17,0.00,,BKN220,0.00,VWS V13.01,2013-04-24 21:42:00,
2013-04-24 15:47:00,58.3,13.7,30.02,West,276,2.7,10.5,17,0.00,,BKN220,0.00,VWS V13.01,2013-04-24 21:47:00,
2013-04-24 15:52:00,58.5,13.8,30.02,NNW,330,2.7,10.5,17,0.00,,BKN220,0.00,VWS V13.01,2013-04-24 21:52:00,
2013-04-24 15:57:00,59.4,14.6,30.02,WSW,257,8.7,10.5,17,0.00,,BKN220,0.00,VWS V13.01,2013-04-24 21:57:00,
2013-04-24 16:02:00,58.3,13.7,30.02,West,278,4.9,10.5,17,0.00,,BKN220,0.00,VWS V13.01,2013-04-24 22:02:00,
2013-04-24 16:07:00,58.5,13.8,30.02,NNW,331,7.6,10.5,17,0.00,,BKN220,0.00,VWS V13.01,2013-04-24 22:07:00,
2013-04-24 16:12:00,58.5,13.8,30.02,North,357,5.4,10.5,17,0.00,,BKN220,0.00,VWS V13.01,2013-04-24 22:12:00,
2013-04-24 16:17:00,58.1,13.5,30.02,North,7,2.7,7.2,17,0.00,,BKN220,0.00,VWS V13.01,2013-04-24 22:17:00,
2013-04-24 16:22:00,57.6,13.1,30.02,North,350,5.4,10.5,17,0.00,,BKN220,0.00,VWS V13.01,2013-04-24 22:22:00,
2013-04-24 16:27:00,57.6,13.1,30.02,NNW,337,8.3,10.5,17,0.00,,BKN220,0.00,VWS V13.01,2013-04-24 22:27:00,
2013-04-24 16:33:00,57.4,12.9,30.02,North,357,4.0,8.7,17,0.00,,BKN220,0.00,VWS V13.01,2013-04-24 22:33:00,
2013-04-24 16:38:00,57.2,12.8,30.02,NW,323,5.4,9.6,17,0.00,,BKN220,0.00,VWS V13.01,2013-04-24 22:38:00,
2013-04-24 16:43:00,57.6,13.1,30.02,NW,320,8.3,11.0,17,0.00,,BKN220,0.00,VWS V13.01,2013-04-24 22:43:00,
2013-04-24 16:48:00,58.3,13.7,30.02,NW,306,5.4,10.5,17,0.00,,BKN220,0.00,VWS V13.01,2013-04-24 22:48:00,
2013-04-24 16:53:00,59.0,14.3,30.02,North,0,2.7,10.5,17,0.00,,BKN220,0.00,VWS V13.01,2013-04-24 22:53:00,
2013-04-24 16:58:00,59.9,10.6,30.02,West,271,8.3,10.5,14,0.00,,BKN220,0.00,VWS V13.01,2013-04-24 22:58:00,
2013-04-24 17:03:00,59.9,10.6,30.02,NW,320,5.8,15.0,14,0.00,,SCT220,0.00,VWS V13.01,2013-04-24 23:03:00,
2013-04-24 17:08:00,60.4,15.4,30.02,NNW,329,7.6,15.0,17,0.00,,SCT220,0.00,VWS V13.01,2013-04-24 23:08:00,
2013-04-24 17:13:00,61.5,11.9,30.02,NNW,346,5.4,15.0,14,0.00,,SCT220,0.00,VWS V13.01,2013-04-24 23:13:00,
2013-04-24 17:18:00,61.7,15.1,30.02,West,277,9.6,9.6,16,0.00,,SCT220,0.00,VWS V13.01,2013-04-24 23:18:00,
2013-04-24 17:23:00,62.2,15.5,30.02,NE,36,3.6,9.6,16,0.00,,SCT220,0.00,VWS V13.01,2013-04-24 23:23:00,
2013-04-24 17:28:00,61.3,14.8,30.02,North,10,3.6,9.6,16,0.00,,SCT220,0.00,VWS V13.01,2013-04-24 23:28:00,
2013-04-24 17:33:00,63.0,16.1,30.02,NNW,342,7.6,8.3,16,0.00,,SCT220,0.00,VWS V13.01,2013-04-24 23:33:00,
2013-04-24 17:38:00,63.1,11.5,30.02,NNW,331,3.6,8.7,13,0.00,,SCT220,0.00,VWS V13.01,2013-04-24 23:38:00,
2013-04-24 17:43:00,63.3,16.4,30.02,WSW,249,3.1,11.0,16,0.00,,SCT220,0.00,VWS V13.01,2013-04-24 23:43:00,
2013-04-24 17:48:00,63.3,11.7,30.02,WNW,289,5.8,10.5,13,0.00,,SCT220,0.00,VWS V13.01,2013-04-24 23:48:00,
2013-04-24 17:53:00,62.2,12.5,30.02,NW,304,7.6,13.6,14,0.00,,SCT220,0.00,VWS V13.01,2013-04-24 23:53:00,
2013-04-24 17:58:00,60.3,10.9,30.02,North,353,2.2,13.6,14,0.00,,SCT220,0.00,VWS V13.01,2013-04-24 23:58:00,
2013-04-24 18:03:00,59.0,9.9,30.02,NNW,338,5.4,6.7,14,0.00,,SCT220,0.00,VWS V13.01,2013-04-25 00:03:00,
2013-04-24 18:08:00,59.2,10.0,30.02,North,353,4.0,11.0,14,0.00,,SCT220,0.00,VWS V13.01,2013-04-25 00:08:00,
2013-04-24 18:13:00,58.8,9.8,30.02,NNW,334,2.7,11.0,14,0.00,,SCT220,0.00,VWS V13.01,2013-04-25 00:13:00,
2013-04-24 18:18:00,58.6,9.6,30.02,NW,314,4.0,8.3,14,0.00,,SCT220,0.00,VWS V13.01,2013-04-25 00:18:00,
2013-04-24 18:23:00,58.6,9.6,30.02,NNW,337,3.1,10.5,14,0.00,,SCT220,0.00,VWS V13.01,2013-04-25 00:23:00,
2013-04-24 18:28:00,58.1,9.2,30.02,WNW,294,6.3,10.5,14,0.00,,SCT220,0.00,VWS V13.01,2013-04-25 00:28:00,
2013-04-24 18:33:00,57.6,8.7,30.02,NW,307,6.3,8.7,14,0.00,,SCT220,0.00,VWS V13.01,2013-04-25 00:33:00,
2013-04-24 18:38:00,57.0,9.8,30.02,NNW,342,5.4,8.7,15,0.00,,SCT220,0.00,VWS V13.01,2013-04-25 00:38:00,
2013-04-24 18:44:00,56.3,9.3,30.02,North,350,3.1,8.7,15,0.00,,SCT220,0.00,VWS V13.01,2013-04-25 00:44:00,
2013-04-24 18:49:00,55.8,8.8,30.02,North,357,4.0,8.1,15,0.00,,SCT220,0.00,VWS V13.01,2013-04-25 00:49:00,
2013-04-24 18:54:00,54.9,8.1,30.02,NNE,12,5.4,8.1,15,0.00,,SCT220,0.00,VWS V13.01,2013-04-25 00:54:00,
2013-04-24 18:59:00,54.3,7.7,30.02,North,353,5.8,8.1,15,0.00,,SCT220,0.00,VWS V13.01,2013-04-25 00:59:00,
2013-04-24 19:04:00,54.1,7.5,30.02,NNW,342,4.0,8.3,15,0.00,,SCT220,0.00,VWS V13.01,2013-04-25 01:04:00,
2013-04-24 19:09:00,53.6,7.1,30.02,NW,325,3.6,8.3,15,0.00,,SCT220,0.00,VWS V13.01,2013-04-25 01:09:00,
2013-04-24 19:14:00,53.1,8.1,30.02,NNE,31,4.0,8.3,16,0.00,,SCT220,0.00,VWS V13.01,2013-04-25 01:14:00,
2013-04-24 19:19:00,52.7,7.8,30.02,NNW,332,4.0,4.9,16,0.00,,SCT220,0.00,VWS V13.01,2013-04-25 01:19:00,
2013-04-24 19:24:00,52.3,7.5,30.02,North,0,2.7,4.9,16,0.00,,SCT220,0.00,VWS V13.01,2013-04-25 01:24:00,
2013-04-24 19:29:00,51.8,7.1,30.05,NE,56,3.6,5.4,16,0.00,,SCT220,0.00,VWS V13.01,2013-04-25 01:29:00,
2013-04-24 19:34:00,51.4,6.8,30.05,NE,41,2.7,4.9,16,0.00,,SCT220,0.00,VWS V13.01,2013-04-25 01:34:00,
2013-04-24 19:39:00,50.9,6.3,30.05,ENE,63,2.7,5.4,16,0.00,,SCT220,0.00,VWS V13.01,2013-04-25 01:39:00,
2013-04-24 19:44:00,50.5,6.0,30.05,NE,52,3.6,5.8,16,0.00,,SCT220,0.00,VWS V13.01,2013-04-25 01:44:00,
2013-04-24 19:49:00,50.2,5.7,30.05,East,88,3.1,6.3,16,0.00,,SCT220,0.00,VWS V13.01,2013-04-25 01:49:00,
2013-04-24 19:54:00,49.6,5.3,30.05,East,82,5.8,6.3,16,0.00,,SCT220,0.00,VWS V13.01,2013-04-25 01:54:00,
2013-04-24 19:59:00,49.1,8.6,30.05,East,94,3.1,7.2,19,0.00,,SCT220,0.00,VWS V13.01,2013-04-25 01:59:00,
2013-04-24 20:04:00,48.7,8.3,30.05,East,88,5.8,6.3,19,0.00,,SCT220,0.00,VWS V13.01,2013-04-25 02:04:00,
2013-04-24 20:09:00,48.4,8.0,30.05,East,81,2.7,6.3,19,0.00,,SCT220,0.00,VWS V13.01,2013-04-25 02:09:00,
2013-04-24 20:14:00,48.0,7.7,30.05,East,89,3.1,6.3,19,0.00,,SCT220,0.00,VWS V13.01,2013-04-25 02:14:00,
2013-04-24 20:19:00,47.5,7.3,30.05,East,79,2.7,3.6,19,0.00,,SCT220,0.00,VWS V13.01,2013-04-25 02:19:00,
2013-04-24 20:24:00,47.3,7.1,30.05,ESE,103,3.1,4.9,19,0.00,,SCT220,0.00,VWS V13.01,2013-04-25 02:24:00,
2013-04-24 20:29:00,46.8,6.7,30.05,East,91,3.1,4.9,19,0.00,,SCT220,0.00,VWS V13.01,2013-04-25 02:29:00,
2013-04-24 20:34:00,46.4,6.4,30.05,East,100,2.7,4.9,19,0.00,,SCT220,0.00,VWS V13.01,2013-04-25 02:34:00,
2013-04-24 20:39:00,46.0,9.3,30.05,ENE,76,4.0,5.8,22,0.00,,SCT220,0.00,VWS V13.01,2013-04-25 02:39:00,
2013-04-24 20:44:00,45.7,9.0,30.08,ESE,110,2.7,5.8,22,0.00,,SCT220,0.00,VWS V13.01,2013-04-25 02:44:00,
2013-04-24 20:49:00,45.3,8.7,30.08,ENE,78,4.0,5.4,22,0.00,,SCT220,0.00,VWS V13.01,2013-04-25 02:49:00,
2013-04-24 20:54:00,45.0,8.4,30.08,ESE,116,5.4,7.6,22,0.00,,SCT220,0.00,VWS V13.01,2013-04-25 02:54:00,
2013-04-24 20:59:00,44.6,8.1,30.08,East,93,5.4,7.6,22,0.00,,SCT220,0.00,VWS V13.01,2013-04-25 02:59:00,
2013-04-24 21:05:00,44.2,8.8,30.08,East,90,3.1,5.4,23,0.00,,SCT220,0.00,VWS V13.01,2013-04-25 03:05:00,
2013-04-24 21:10:00,44.1,8.6,30.08,ESE,106,0.0,5.4,23,0.00,,SCT220,0.00,VWS V13.01,2013-04-25 03:10:00,
2013-04-24 21:15:00,43.5,8.2,30.08,SE,131,2.7,5.4,23,0.00,,SCT220,0.00,VWS V13.01,2013-04-25 03:15:00,
2013-04-24 21:20:00,43.2,9.7,30.08,SE,131,0.0,3.6,25,0.00,,SCT220,0.00,VWS V13.01,2013-04-25 03:20:00,
2013-04-24 21:25:00,42.8,9.4,30.08,ESE,110,3.6,5.4,25,0.00,,SCT220,0.00,VWS V13.01,2013-04-25 03:25:00,
2013-04-24 21:30:00,42.6,10.1,30.08,ESE,110,5.4,5.4,26,0.00,,SCT220,0.00,VWS V13.01,2013-04-25 03:30:00,
2013-04-24 21:35:00,42.3,9.8,30.08,SE,139,3.6,3.6,26,0.00,,SCT220,0.00,VWS V13.01,2013-04-25 03:35:00,
2013-04-24 21:40:00,42.1,9.7,30.08,SE,141,3.1,5.4,26,0.00,,SCT220,0.00,VWS V13.01,2013-04-25 03:40:00,
2013-04-24 21:45:00,41.9,11.2,30.08,SE,127,6.3,6.3,28,0.00,,SCT220,0.00,VWS V13.01,2013-04-25 03:45:00,
2013-04-24 21:50:00,41.7,11.0,30.08,SE,134,2.2,6.3,28,0.00,,SCT220,0.00,VWS V13.01,2013-04-25 03:50:00,
2013-04-24 21:55:00,41.5,10.9,30.08,SE,141,0.0,6.3,28,0.00,,SCT220,0.00,VWS V13.01,2013-04-25 03:55:00,
2013-04-24 22:00:00,41.4,10.7,30.08,SE,141,0.0,0.0,28,0.00,,SCT220,0.00,VWS V13.01,2013-04-25 04:00:00,
2013-04-24 22:01:00,41.4,10.7,30.08,SE,141,0.0,0.0,28,0.00,,SCT220,0.00,VWS V13.01,2013-04-25 04:01:00,
2013-04-24 22:02:00,41.5,10.9,30.08,SE,141,0.0,0.0,28,0.00,,SCT220,0.00,VWS V13.01,2013-04-25 04:02:00,
2013-04-24 22:07:00,41.4,10.7,30.08,SSE,167,0.0,4.0,28,0.00,,SCT220,0.00,VWS V13.01,2013-04-25 04:07:00,
2013-04-24 22:12:00,41.2,10.6,30.08,SW,221,3.1,4.0,28,0.00,,SCT220,0.00,VWS V13.01,2013-04-25 04:12:00,
2013-04-24 22:17:00,41.0,10.4,30.08,WSW,247,2.7,3.1,28,0.00,,SCT220,0.00,VWS V13.01,2013-04-25 04:17:00,
2013-04-24 22:22:00,40.5,10.7,30.08,WSW,248,0.0,3.1,29,0.00,,SCT220,0.00,VWS V13.01,2013-04-25 04:22:00,
2013-04-24 22:27:00,40.3,10.6,30.08,SW,219,4.9,4.9,29,0.00,,SCT220,0.00,VWS V13.01,2013-04-25 04:27:00,
2013-04-24 22:32:00,39.9,10.2,30.08,SSW,207,0.0,2.2,29,0.00,,SCT220,0.00,VWS V13.01,2013-04-25 04:32:00,
2013-04-24 22:37:00,39.6,9.9,30.08,SE,143,4.0,4.0,29,0.00,,SCT220,0.00,VWS V13.01,2013-04-25 04:37:00,
2013-04-24 22:42:00,39.2,9.6,30.08,SSE,147,2.7,4.0,29,0.00,,SCT220,0.00,VWS V13.01,2013-04-25 04:42:00,
2013-04-24 22:47:00,39.0,10.2,30.08,SSW,192,0.0,3.1,30,0.00,,SCT220,0.00,VWS V13.01,2013-04-25 04:47:00,
2013-04-24 22:53:00,38.7,9.9,30.08,SSE,157,2.7,3.1,30,0.00,,SCT220,0.00,VWS V13.01,2013-04-25 04:53:00,
2013-04-24 22:58:00,38.5,9.8,30.05,SSE,157,2.2,3.6,30,0.00,,SCT220,0.00,VWS V13.01,2013-04-25 04:58:00,
2013-04-24 23:03:00,38.3,9.6,30.05,South,181,4.0,4.0,30,0.00,,FEW220,0.00,VWS V13.01,2013-04-25 05:03:00,
2013-04-24 23:08:00,38.1,9.4,30.05,South,173,0.0,4.0,30,0.00,,FEW220,0.00,VWS V13.01,2013-04-25 05:08:00,
2013-04-24 23:13:00,37.8,9.1,30.05,South,184,0.0,4.0,30,0.00,,FEW220,0.00,VWS V13.01,2013-04-25 05:13:00,
2013-04-24 23:18:00,37.6,9.0,30.05,South,183,0.0,0.0,30,0.00,,FEW220,0.00,VWS V13.01,2013-04-25 05:18:00,
2013-04-24 23:23:00,37.2,9.4,30.05,SW,223,2.7,3.6,31,0.00,,FEW220,0.00,VWS V13.01,2013-04-25 05:23:00,
2013-04-24 23:28:00,37.0,9.2,30.05,SW,225,0.0,3.6,31,0.00,,FEW220,0.00,VWS V13.01,2013-04-25 05:28:00,
2013-04-24 23:33:00,36.9,9.1,30.05,SW,225,0.0,0.0,31,0.00,,FEW220,0.00,VWS V13.01,2013-04-25 05:33:00,
2013-04-24 23:38:00,36.7,8.9,30.05,South,180,0.0,3.6,31,0.00,,FEW220,0.00,VWS V13.01,2013-04-25 05:38:00,
2013-04-24 23:43:00,36.3,9.3,30.05,SSE,152,3.6,3.6,32,0.00,,FEW220,0.00,VWS V13.01,2013-04-25 05:43:00,
2013-04-24 23:48:00,36.1,9.1,30.05,South,172,2.7,3.1,32,0.00,,FEW220,0.00,VWS V13.01,2013-04-25 05:48:00,
2013-04-24 23:53:00,36.0,9.0,30.05,South,170,0.0,3.1,32,0.00,,FEW220,0.00,VWS V13.01,2013-04-25 05:53:00,
2013-04-24 23:58:00,35.8,8.8,30.05,SSE,158,0.0,3.1,32,0.00,,FEW220,0.00,VWS V13.01,2013-04-25 05:58:00,